Station Name: PHOENIX PARK
Station Height: 48 M 
Latitude:53.364  ,Longitude: -6.350


date:  -  00 to 00 utc
rain:  -  Precipitation Amount (mm)
maxtp: -  Maximum Air Temperature (C)	  
mintp: -  Minimum  Air Temperature (C)
gmin:  -  09utc Grass Minimum Temperature (C)
soil:  -  Mean 10cm soil temperature (C)
cbl:   -  Mean CBL Pressure (hpa)
ind:   -  Indicator (i)

date,ind,maxtp,ind,mintp,igmin,gmin,ind,rain,cbl,soil
16-aug-2003,0,20.1,0,7.5,4, ,0,0.0,1013.7,18.565
17-aug-2003,0,21.3,0,11.6,0,7.5,0,1.1,1007.5,18.280
18-aug-2003,0,20.3,0,8.5,0,4.3,0,0.0,1008.8,17.825
19-aug-2003,0,19.9,0,11.3,0,7.7,0,0.0,1014.3,18.138
20-aug-2003,0,21.5,0,10.8,0,6.9,0,0.0,1013.6,18.432
21-aug-2003,0,24.0,0,13.0,0,9.1,0,0.1,1007.0,19.122
22-aug-2003,0,20.6,0,14.0,0,12.4,0,4.9,1009.0,18.728
23-aug-2003,0,25.1,0,16.2,0,16.2,0,0.0,1014.7,20.240
24-aug-2003,0,22.6,0,15.1,0,12.0,0,0.0,1016.9,20.065
25-aug-2003,0,18.9,0,15.4,0,13.0,0,0.0,1015.6,18.710
26-aug-2003,0,18.7,0,11.8,0,14.1,0,0.0,1013.2,18.298
27-aug-2003,0,19.2,0,9.4,0,8.1,0,0.0,1010.0,18.382
28-aug-2003,0,16.7,0,8.6,0,5.4,0,3.9,1005.8,15.990
29-aug-2003,0,17.6,0,7.7,0,4.5,0,1.0,1009.6,15.283
30-aug-2003,0,17.7,0,6.0,0,2.4,0,0.0,1015.3,14.715
31-aug-2003,0,16.4,0,8.5,0,4.8,0,0.0,1018.1,15.347
01-sep-2003,4, ,4, , , ,8, , , 
02-sep-2003,0,19.3,0,13.2, , ,0,0.0,1022.8, 
03-sep-2003,0,19.0,0,12.2, , ,0,0.0,1024.2, 
06-sep-2003,0,19.9,0,6.7, , ,0,0.0,1009.2, 
07-sep-2003,0,16.0,0,5.1, , ,0,8.0,1005.8, 
08-sep-2003,0,18.4,0,6.3, , ,0,0.1,1006.2, 
09-sep-2003,0,16.1,0,7.5, , ,0,1.2,1006.4, 
10-sep-2003,0,19.4,0,13.5, , ,0,2.0,1007.2, 
11-sep-2003,0,21.8,0,8.3, , ,0,0.4,1015.7, 
12-sep-2003,4, ,4, , , ,8, , , 
07-oct-2003,0,13.5,0,8.5,4, ,0,2.9,1006.4,11.142
08-oct-2003,0,19.2,0,11.0,0,10.1,0,0.1,1011.7,13.472
09-oct-2003,0,19.2,0,10.7,0,7.3,0,0.3,1010.5,13.660
10-oct-2003,0,15.7,0,5.6,0,3.9,0,0.0,1012.3,12.460
11-oct-2003,0,16.7,0,6.3,0,2.6,0,0.0,1016.0,11.943
12-oct-2003,0,14.3,0,12.0,0,10.1,0,1.1,1014.4,12.917
13-oct-2003,0,15.1,0,11.3,0,10.9,0,5.7,1013.5,12.991
14-oct-2003,0,14.5,0,11.0,0,6.6,0,0.0,1017.2,12.583
15-oct-2003,0,13.7,0,5.5,0,2.7,0,0.0,1021.1,11.247
16-oct-2003,0,14.3,0,6.2,0,0.5,0,0.0,1022.4,9.573
17-oct-2003,0,14.1,0,4.5,0,-1.5,0,0.0,1018.5,9.309
18-oct-2003,0,11.9,0,6.7,0,0.2,0,0.0,1013.6,9.238
19-oct-2003,0,10.6,0,7.7,0,3.4,0,3.3,1010.3,9.050
20-oct-2003,0,10.0,0,2.7,0,-1.0,0,1.9,1010.2,7.644
21-oct-2003,0,9.1,0,0.6,0,-3.4,0,7.7,1006.8,6.670
22-oct-2003,0,7.6,0,0.4,0,-2.0,0,52.1,1007.3,4.294
23-oct-2003,0,11.3,0,0.1,0,-0.1,0,9.3,1016.2,6.218
24-oct-2003,0,9.8,0,-0.1,0,-4.8,0,0.0,1021.8,4.720
25-oct-2003,0,10.0,0,0.6,0,-4.2,0,0.0,1018.2,4.999
26-oct-2003,0,11.9,0,1.2,0,-3.0,0,0.0,1014.8,5.795
27-oct-2003,0,12.4,0,-0.5,0,-4.4,0,0.0,1014.8,5.195
28-oct-2003,0,11.2,0,2.6,0,-1.8,0,1.8,1003.9,6.964
29-oct-2003,0,9.3,0,2.1,0,-0.2,0,1.0,991.5,6.727
30-oct-2003,0,9.1,0,0.8,0,-4.9,0,19.5,977.4,5.100
31-oct-2003,0,9.9,0,5.7,0,4.8,0,14.5,978.9,7.236
01-nov-2003,0,11.9,0,1.7,0,-2.1,0,1.7,984.9,6.048
02-nov-2003,0,13.0,0,7.8,0,0.7,0,0.4,975.8,7.693
03-nov-2003,0,11.6,0,3.5,0,3.3,0,0.0,993.2,6.688
04-nov-2003,0,15.7,0,4.6,0,-1.6,0,0.0,1008.9,7.862
05-nov-2003,0,16.0,0,12.6,0,9.5,0,0.1,1005.3,10.615
06-nov-2003,0,15.2,0,4.3,0,-0.9,0,0.0,1011.8,9.633
07-nov-2003,0,15.9,0,9.7,0,5.5,0,0.0,1017.8,10.082
08-nov-2003,0,10.5,0,7.6,0,4.0,0,0.0,1012.8,7.556
09-nov-2003,0,14.2,0,8.1,0,5.7,0,0.0,1005.2,8.225
10-nov-2003,0,15.0,0,5.8,0,0.1,0,0.0,1010.6,7.826
11-nov-2003,0,13.0,0,8.8,0,0.7,0,4.9,1005.4,8.915
12-nov-2003,0,12.8,0,4.1,0,-1.1,0,0.1,1006.0,7.288
13-nov-2003,0,11.6,0,3.4,0,-1.0,0,8.6,1001.2,6.380
14-nov-2003,0,11.6,0,7.8,0,4.5,0,1.4,992.6,8.475
15-nov-2003,0,8.6,0,2.9,0,-0.6,0,0.1,1007.2,6.173
16-nov-2003,0,9.0,0,1.6,0,-3.2,0,0.0,1012.8,3.651
17-nov-2003,0,14.0,0,8.8,0,-1.6,0,0.1,1009.5,8.257
18-nov-2003,0,14.4,0,12.6,0,11.3,0,0.0,1009.9,10.820
19-nov-2003,0,13.8,0,9.8,0,5.5,0,5.7,1008.5,10.382
20-nov-2003,0,12.1,0,1.3,0,5.1,0,3.8,1003.0,9.167
21-nov-2003,0,6.8,0,-0.4,0,-4.7,0,0.0,1002.0,3.420
22-nov-2003,0,7.3,0,-1.2,0,-5.5,0,0.0,998.5,2.173
23-nov-2003,0,6.6,0,1.0,0,-5.5,0,0.0,1001.5,1.794
24-nov-2003,0,10.6,0,1.4,0,-5.0,0,0.0,999.1,2.848
25-nov-2003,0,10.9,0,5.4,0,-1.2,0,1.7,986.2,5.631
26-nov-2003,0,6.4,0,2.1,0,-0.3,0,0.3,980.6,4.197
27-nov-2003,0,6.5,0,0.9,0,-4.1,0,0.0,992.9,2.246
28-nov-2003,0,11.7,0,-0.4,0,-5.5,0,0.0,996.1,3.426
29-nov-2003,0,12.1,0,4.5,0,1.6,0,18.8,987.4,6.661
30-nov-2003,0,6.8,0,-2.4,0,-2.8,0,0.0,994.4,3.058
01-dec-2003,0,7.4,0,-3.4,0,-7.5,0,1.6,1001.9,2.050
02-dec-2003,0,11.0,0,2.9,0,-6.0,0,13.9,1009.9,5.701
03-dec-2003,0,9.9,0,5.6,0,-0.9,0,0.0,1020.8,6.231
04-dec-2003,0,9.9,0,1.5,0,4.6,0,0.0,1028.3,6.645
05-dec-2003,0,9.7,0,2.8,0,-2.1,0,0.1,1026.7,6.348
06-dec-2003,0,10.9,0,6.6,0,7.0,0,0.1,1025.0,7.562
07-dec-2003,0,7.8,0,-0.9,0,3.0,0,0.0,1022.1,5.021
08-dec-2003,0,7.4,0,-1.5,0,-6.6,0,0.0,1011.8,2.293
09-dec-2003,0,12.1,0,6.6,0,-4.5,0,0.2,1006.8,5.683
10-dec-2003,0,10.2,0,8.2,0,1.1,0,0.6,1002.9,6.216
11-dec-2003,0,10.1,0,0.2,0,2.4,0,3.8,1003.1,5.779
12-dec-2003,0,13.9,0,1.5,0,-3.2,0,3.7,1004.1,6.490
13-dec-2003,0,13.0,0,6.0,0,6.6,0,2.0,1001.2,8.338
14-dec-2003,0,8.1,0,1.2,0,0.2,0,0.1,1014.8,4.615
15-dec-2003,0,4.6,0,-1.4,0,-5.5,0,0.0,1023.9,2.366
16-dec-2003,0,10.2,0,1.6,0,-5.0,0,0.0,1018.2,3.973
17-dec-2003,0,9.4,0,-0.8,0,0.0,0,0.0,1012.7,4.499
18-dec-2003,0,7.4,0,-1.2,0,-4.9,0,0.0,1008.8,2.271
19-dec-2003,0,8.5,0,5.5,0,-2.9,0,0.2,1009.7,4.840
20-dec-2003,0,9.1,0,1.6,0,1.5,0,5.0,1000.0,5.372
21-dec-2003,0,5.0,0,-1.2,0,-2.7,0,0.1,1011.9,2.643
22-dec-2003,0,6.1,0,-2.0,0,-7.4,0,1.0,1025.7,1.493
23-dec-2003,0,10.7,0,6.0,0,-2.0,0,0.2,1019.2,5.273
24-dec-2003,0,11.1,0,8.7,0,7.0,0,0.0,1015.8,7.308
25-dec-2003,0,11.5,0,8.2,0,7.8,0,4.3,1004.8,7.783
26-dec-2003,0,10.3,0,1.9,0,6.9,0,6.5,989.9,7.087
27-dec-2003,0,3.8,0,-0.2,0,-2.0,0,0.0,987.5,3.303
28-dec-2003,0,4.4,0,-0.9,0,-5.2,0,0.0,996.3,2.021
29-dec-2003,0,5.6,0,-4.3,0,-4.8,0,0.0,1003.0,1.589
30-dec-2003,4, ,4, ,0,-7.9,8, , ,1.030
01-jan-2004,0,7.7,0,4.0,4,-0.5,0,0.5,1005.0,4.140
02-jan-2004,0,5.8,0,2.4,0,-0.8,0,5.6,1015.1,3.549
03-jan-2004,0,8.9,0,2.5,0,1.1,0,2.7,1013.8,5.124
04-jan-2004,0,9.6,0,2.0,0,-1.8,0,0.1,1012.7,4.689
05-jan-2004,0,12.6,0,8.3,0,-0.4,0,0.1,1005.3,7.056
06-jan-2004,0,10.0,0,4.9,0,0.6,0,1.9,1003.6,5.280
07-jan-2004,0,12.4,0,8.4,0,0.6,0,1.4,992.7,6.830
08-jan-2004,0,10.0,0,5.1,0,4.3,0,12.5,978.7,6.239
09-jan-2004,0,8.3,0,3.3,0,0.1,0,2.7,991.6,3.983
10-jan-2004,0,12.2,0,7.4,0,0.0,0,5.6,993.3,5.405
11-jan-2004,0,11.4,0,2.5,0,0.3,0,7.4,988.3,5.043
12-jan-2004,0,8.8,0,3.7,0,-0.6,0,2.0,981.7,3.014
13-jan-2004,0,7.0,0,1.7,0,-0.0,0,3.8,978.6,3.602
14-jan-2004,0,4.2,0,0.5,0,-2.5,0,0.0,991.7,2.139
15-jan-2004,0,9.3,0,2.4,0,-2.1,0,13.8,985.2,3.021
16-jan-2004,0,6.1,0,1.5,0,-1.0,0,0.5,985.1,3.084
17-jan-2004,0,4.9,0,-1.9,0,-6.5,0,0.0,1005.5,1.438
18-jan-2004,0,7.7,0,-1.3,0,-6.9,0,0.0,1019.7,1.221
19-jan-2004,0,10.6,0,7.3,0,-1.4,0,0.0,1014.5,5.304
20-jan-2004,0,9.1,0,7.5,0,7.4,0,0.1,1014.0,6.738
21-jan-2004,0,9.6,0,7.1,0,5.5,0,0.0,1011.2,6.373
22-jan-2004,0,11.9,0,4.1,0,4.4,0,0.5,1003.8,7.482
23-jan-2004,0,11.1,0,3.2,0,-1.1,0,3.2,1004.4,6.141
24-jan-2004,0,7.8,0,2.1,0,-2.4,0,0.1,1010.0,3.450
25-jan-2004,0,6.3,0,-1.5,0,-6.0,0,0.0,1006.6,2.052
26-jan-2004,0,4.6,0,-1.4,0,-6.3,0,9.8,1004.5,1.565
27-jan-2004,0,3.2,0,-2.1,0,-7.4,0,0.8,1007.2,1.357
28-jan-2004,0,5.0,0,-3.2,0,-6.1,0,0.6,1004.2,1.396
29-jan-2004,0,3.6,0,-3.8,0,-8.9,0,0.0,1005.3,0.810
30-jan-2004,0,10.1,0,3.4,0,-3.2,0,1.3,993.6,2.291
31-jan-2004,0,13.8,0,5.0,0,3.6,0,12.9,980.0,6.175
01-feb-2004,0,10.9,0,5.3,0,2.7,0,2.1,995.2,5.520
02-feb-2004,0,13.5,0,8.2,0,4.2,0,3.1,999.0,7.273
03-feb-2004,0,15.1,0,8.9,0,10.1,0,3.7,1000.7,9.443
04-feb-2004,0,14.9,0,7.9,0,2.5,0,5.6,1004.2,8.412
05-feb-2004,0,14.1,0,8.7,0,6.3,0,0.0,1007.2,8.173
06-feb-2004,0,9.5,0,4.6,0,2.5,0,0.0,1002.9,6.359
07-feb-2004,0,8.4,0,3.1,0,-0.3,0,1.6,1007.6,4.738
08-feb-2004,0,7.0,0,-2.5,0,-1.0,0,0.0,1020.4,3.914
09-feb-2004,0,8.2,0,-3.6,0,-7.3,0,0.0,1027.8,2.944
10-feb-2004,0,11.3,0,6.8,0,0.4,0,0.0,1024.2,5.822
11-feb-2004,0,12.8,0,3.4,0,-1.7,0,0.0,1026.2,6.433
12-feb-2004,0,11.4,0,-0.7,0,-4.7,0,0.0,1025.2,5.055
13-feb-2004,0,10.5,0,2.2,0,-1.3,0,1.1,1026.5,5.627
14-feb-2004,0,9.8,0,-1.7,0,-5.6,0,0.0,1024.8,4.382
15-feb-2004,0,9.6,0,0.5,0,-4.1,0,0.0,1023.0,4.763
16-feb-2004,0,10.1,0,0.6,0,-3.8,0,0.3,1024.3,5.277
17-feb-2004,0,8.9,0,0.1,0,0.0,0,0.0,1028.2,5.418
18-feb-2004,0,9.6,0,-3.5,0,-6.9,0,0.0,1028.9,3.785
19-feb-2004,0,8.2,0,-3.1,0,-7.0,0,0.0,1026.2,3.136
20-feb-2004,0,6.8,0,3.3,0,-1.8,0,0.0,1019.3,3.603
21-feb-2004,0,6.1,0,2.8,0,0.5,0,0.0,1014.2,3.613
22-feb-2004,0,6.6,0,-0.9,0,-4.9,0,0.0,1019.0,3.075
23-feb-2004,0,6.3,0,-3.1,0,-7.8,0,0.0,1021.1,2.878
24-feb-2004,0,7.8,0,0.4,0,0.2,0,2.6,1013.9,4.380
25-feb-2004,0,5.4,0,-2.0,0,-6.8,0,0.0,1010.7,3.237
26-feb-2004,0,4.3,0,-3.2,0,-8.1,0,0.1,1004.8,2.339
27-feb-2004,0,4.9,0,-2.9,0,-8.3,0,0.0,1002.8,1.613
28-feb-2004,0,5.8,0,-4.2,0,-9.6,0,0.0,1009.3,1.449
29-feb-2004,0,7.0,0,-4.9,0,-9.4,0,0.0,1020.4,1.151
01-mar-2004,0,9.0,0,-5.0,0,-8.8,0,0.0,1028.2,1.380
02-mar-2004,0,8.6,0,-4.5,0,-9.2,0,0.0,1023.2,1.722
03-mar-2004,0,11.0,0,2.2,0,3.0,0,4.3,1013.2,4.534
04-mar-2004,0,13.0,0,0.8,0,-4.1,0,1.0,1012.2,4.842
05-mar-2004,0,10.9,0,1.6,0,-3.6,0,0.0,1015.4,5.053
06-mar-2004,0,11.1,0,-0.0,0,-4.5,0,0.8,1019.5,4.772
07-mar-2004,0,10.6,0,-0.3,0,-4.0,0,0.1,1024.7,4.646
08-mar-2004,0,9.7,0,-1.4,0,-5.7,0,0.0,1029.6,4.197
09-mar-2004,0,8.1,0,-3.3,0,-7.4,0,0.0,1028.9,3.307
10-mar-2004,0,5.6,0,2.7,0,-3.5,0,0.0,1020.7,3.714
11-mar-2004,0,4.2,0,1.7,0,-0.7,0,3.0,1004.7,3.146
12-mar-2004,0,8.7,0,2.2,0,1.2,0,3.7,994.6,4.142
13-mar-2004,0,10.4,0,0.4,0,-4.6,0,1.6,997.5,4.788
14-mar-2004,0,13.0,0,5.1,0,-0.2,0,3.7,998.0,6.609
15-mar-2004,0,16.9,0,7.7,0,2.7,0,1.2,1007.3,8.123
16-mar-2004,0,14.6,0,9.2,0,5.5,0,2.6,1008.9,9.470
17-mar-2004,0,14.7,0,6.5,0,1.0,0,0.0,1014.4,8.498
18-mar-2004,0,11.5,0,5.6,0,1.1,0,1.4,1008.5,7.540
19-mar-2004,0,11.3,0,5.3,0,1.7,0,4.3,993.5,7.758
20-mar-2004,0,13.8,0,3.6,0,4.3,0,5.3,989.0,8.698
21-mar-2004,0,11.2,0,3.6,0,0.9,0,2.0,996.7,7.150
22-mar-2004,0,9.6,0,2.3,0,-0.2,0,3.2,1008.8,6.714
23-mar-2004,0,9.9,0,0.5,0,-3.0,0,1.0,1017.8,5.980
24-mar-2004,0,10.7,0,-0.5,0,-5.2,0,0.0,1024.0,5.837
25-mar-2004,0,10.8,0,4.8,0,0.3,0,0.1,1020.8,7.301
26-mar-2004,0,11.0,0,4.3,0,2.8,0,0.0,1019.8,7.813
27-mar-2004,0,10.3,0,7.4,0,6.7,0,0.0,1012.3,8.837
28-mar-2004,0,12.5,0,5.3,0,0.1,0,0.1,1010.8,8.863
29-mar-2004,0,11.9,0,4.3,0,5.1,0,0.0,1015.0,9.167
30-mar-2004,0,12.1,0,3.8,0,-0.9,0,0.0,1009.4,8.263
31-mar-2004,0,14.4,0,3.8,0,-1.7,0,1.8,1000.8,8.857
01-apr-2004,0,13.2,0,8.3,0,5.7,0,3.7,994.6,10.467
02-apr-2004,0,13.8,0,6.8,0,2.9,0,0.5,994.3,9.873
03-apr-2004,0,12.9,0,5.2,0,5.6,0,2.0,996.6,10.305
04-apr-2004,0,11.1,0,3.8,0,-0.4,0,2.4,1003.3,8.538
05-apr-2004,0,11.7,0,3.8,0,1.8,0,1.6,1006.4,8.696
06-apr-2004,0,11.3,0,3.8,0,0.8,0,0.2,1008.5,8.474
07-apr-2004,0,11.9,0,1.9,0,-2.1,0,0.0,1015.0,7.852
08-apr-2004,0,10.4,0,0.4,0,-3.6,0,0.9,1016.9,7.187
09-apr-2004,0,13.1,0,7.8,0,7.2,0,2.7,1014.8,9.868
10-apr-2004,0,12.1,0,6.7,0,4.8,0,0.9,1015.7,10.415
11-apr-2004,0,11.5,0,5.7,0,3.3,0,0.0,1018.4,10.345
12-apr-2004,0,13.3,0,4.8,0,0.7,0,0.1,1021.6,10.297
13-apr-2004,0,11.3,0,3.7,0,-0.5,0,0.3,1018.5,10.025
14-apr-2004,0,14.3,0,9.4,0,8.1,0,0.0,1008.2,10.995
15-apr-2004,0,12.4,0,5.2,0,6.8,0,7.1,1002.2,10.863
16-apr-2004,0,12.1,0,1.3,0,-2.3,0,0.1,1003.8,9.665
17-apr-2004,0,9.1,0,1.1,0,-2.5,0,2.4,989.4,7.850
18-apr-2004,0,10.8,0,2.3,0,-0.5,0,2.0,976.5,9.048
19-apr-2004,0,14.3,0,0.8,0,-2.4,0,3.5,983.1,8.602
20-apr-2004,0,11.4,0,3.4,0,0.3,0,0.5,988.5,9.230
21-apr-2004,0,15.8,0,7.5,0,5.6,0,3.1,992.5,10.650
22-apr-2004,0,14.9,0,5.7,0,0.6,0,0.1,1007.2,11.238
23-apr-2004,0,18.2,0,9.7,0,6.6,0,0.0,1016.3,13.342
24-apr-2004,0,18.8,0,7.6,0,9.9,0,0.0,1019.2,15.150
25-apr-2004,0,16.0,0,5.1,0,0.4,0,0.0,1019.2,14.095
26-apr-2004,0,16.1,0,3.7,0,0.4,0,0.0,1015.7,13.798
27-apr-2004,0,15.1,0,4.0,0,-0.0,0,0.0,1014.0,13.517
28-apr-2004,0,14.0,0,6.8,0,5.2,0,0.0,1011.5,12.583
29-apr-2004,0,12.1,0,6.1,0,4.0,0,0.5,1005.8,11.060
30-apr-2004,0,12.5,0,6.3,0,3.8,0,0.0,1003.2,10.255
01-may-2004,0,16.2,0,7.6,0,5.7,0,0.0,1004.4,13.062
02-may-2004,0,14.8,0,4.5,0,0.5,0,0.0,1003.6,13.685
03-may-2004,0,14.0,0,5.1,0,1.3,0,2.4,992.2,13.940
04-may-2004,0,11.3,0,5.5,0,3.5,0,10.2,974.7,12.097
05-may-2004,0,11.7,0,5.9,0,5.2,0,7.6,976.3,11.615
06-may-2004,0,13.6,0,6.1,0,6.2,0,1.1,988.1,12.125
07-may-2004,0,15.9,0,5.4,0,0.6,0,0.1,1000.1,12.810
08-may-2004,0,15.5,0,3.4,0,-0.0,0,0.0,1003.8,13.262
09-may-2004,0,13.9,0,7.8,0,5.5,0,0.4,1006.0,12.990
10-may-2004,0,17.3,0,9.7,0,9.8,0,0.0,1011.8,14.493
11-may-2004,0,13.4,0,9.0,0,9.6,0,0.1,1017.0,13.967
12-may-2004,0,13.4,0,9.1,0,11.4,0,0.0,1019.4,13.545
13-may-2004,0,15.2,0,8.3,0,4.9,0,0.0,1018.2,13.680
14-may-2004,0,17.4,0,8.9,0,4.4,0,0.0,1020.5,14.122
15-may-2004,0,18.5,0,8.1,0,4.3,0,0.0,1023.8,16.298
16-may-2004,0,21.9,0,6.7,0,3.4,0,0.0,1022.8,17.792
17-may-2004,0,17.5,0,8.0,0,5.7,0,0.0,1020.5,16.358
18-may-2004,0,20.6,0,5.0,0,0.2,0,0.0,1019.2,17.120
19-may-2004,0,18.6,0,10.3,0,7.4,0,0.2,1018.8,17.420
20-may-2004,0,16.1,0,5.2,0,5.1,0,0.5,1019.2,17.013
21-may-2004,0,14.1,0,2.0,0,-1.7,0,0.0,1022.3,14.078
22-may-2004,0,15.0,0,2.0,0,-2.5,0,0.0,1025.6,14.823
23-may-2004,0,18.1,0,1.8,0,-2.5,0,0.0,1024.4,15.960
24-may-2004,0,17.9,0,6.7,0,2.3,0,0.0,1021.8,16.603
25-may-2004,0,15.5,0,6.2,0,2.4,0,0.0,1018.6,17.012
26-may-2004,0,16.6,0,5.5,0,0.8,0,0.0,1015.3,17.475
27-may-2004,0,17.4,0,6.0,0,1.2,0,0.0,1014.2,17.085
28-may-2004,0,18.3,0,11.1,0,10.8,0,0.4,1011.3,16.463
29-may-2004,0,19.9,0,8.3,0,4.7,0,0.7,1010.2,17.065
30-may-2004,0,16.4,0,7.7,0,3.2,0,12.3,1011.8,16.065
31-may-2004,0,16.0,0,6.2,0,2.4,0,4.8,1009.3,14.715
01-jun-2004,0,20.9,0,9.5,0,7.1,0,0.0,1013.8,16.340
02-jun-2004,0,18.0,0,6.9,0,3.4,0,0.0,1022.2,16.315
03-jun-2004,0,19.0,0,12.1,0,10.7,0,1.6,1020.8,16.780
04-jun-2004,0,20.2,0,14.0,0,10.4,0,0.0,1017.2,17.270
05-jun-2004,0,20.9,0,14.0,0,14.4,0,0.0,1014.6,18.342
06-jun-2004,0,22.6,0,12.1,0,8.7,0,0.0,1011.2,19.237
07-jun-2004,0,19.5,0,11.4,0,8.4,0,0.0,1010.1,19.808
08-jun-2004,0,20.5,0,12.3,0,9.7,0,0.0,1008.5,19.575
09-jun-2004,0,22.3,0,14.5,0,12.2,0,0.0,1009.0,20.708
10-jun-2004,0,20.9,0,11.6,0,9.7,0,5.8,1007.2,20.080
11-jun-2004,0,17.5,0,11.1,0,8.7,0,5.2,1012.5,18.160
12-jun-2004,0,18.8,0,9.9,0,7.8,0,0.0,1020.9,17.743
13-jun-2004,0,24.1,0,9.2,0,7.3,0,0.0,1026.6,18.650
14-jun-2004,0,25.2,0,12.2,0,9.8,0,0.0,1025.2,21.025
15-jun-2004,0,20.7,0,12.2,0,10.3,0,0.0,1021.0,20.233
16-jun-2004,4, ,4, ,0,14.2,8, , ,19.130
18-jun-2004,0,15.9,0,6.2,4, ,0,4.0,1006.9,18.292
19-jun-2004,0,16.1,0,4.4,0,-0.4,0,2.2,1006.3,16.360
20-jun-2004,0,15.8,0,5.7,0,0.4,0,4.5,1002.5,16.048
21-jun-2004,0,17.0,0,6.4,0,1.8,0,0.0,1003.0,16.513
22-jun-2004,0,16.4,0,6.9,0,2.9,0,19.1,993.5,15.815
23-jun-2004,0,15.7,0,8.8,0,6.7,0,6.1,989.8,15.378
24-jun-2004,0,16.6,0,8.0,0,4.5,0,0.1,1004.4,15.255
25-jun-2004,0,18.2,0,5.8,0,0.5,0,0.0,1010.6,16.540
26-jun-2004,0,22.2,0,11.9,0,7.5,0,0.8,1004.0,17.807
27-jun-2004,0,19.8,0,9.0,0,6.6,0,0.3,1009.2,18.868
28-jun-2004,0,17.8,0,8.0,0,2.6,0,2.8,1016.5,16.767
29-jun-2004,0,18.8,0,11.6,0,7.5,0,0.0,1012.1,16.823
30-jun-2004,0,19.0,0,10.1,0,13.6,0,2.4,1004.2,18.290
01-jul-2004,0,18.0,0,9.1,0,5.1,0,4.4,1001.6,17.795
02-jul-2004,0,17.6,0,9.1,0,4.7,0,4.4,998.8,17.105
03-jul-2004,0,17.2,0,10.9,0,9.0,0,9.4,1003.2,16.910
04-jul-2004,0,16.8,0,7.8,0,6.4,0,3.4,1009.5,16.705
05-jul-2004,0,20.0,0,5.4,0,1.0,0,1.3,1014.8,16.700
06-jul-2004,0,17.6,0,9.7,0,9.4,0,0.0,1015.7,17.577
07-jul-2004,4, ,4, ,0,4.9,8, , ,16.673
15-jul-2004,0,17.6,0,12.7,4, ,0,6.0,1008.1,18.298
16-jul-2004,0,18.6,0,10.4,0,7.8,0,0.0,1005.8,18.090
17-jul-2004,0,19.3,0,9.1,0,10.7,0,2.1,1004.8,18.377
18-jul-2004,0,19.5,0,8.0,0,3.4,0,0.0,1008.5,17.990
19-jul-2004,0,19.9,0,8.1,0,3.5,0,0.0,1007.4,18.142
20-jul-2004,0,19.8,0,10.9,0,7.2,0,0.6,1002.0,17.425
21-jul-2004,0,21.2,0,13.1,0,9.6,0,0.0,1004.0,18.425
22-jul-2004,0,21.7,0,11.5,0,11.6,0,0.0,1009.5,19.583
23-jul-2004,0,19.9,0,10.0,0,4.5,0,0.0,1015.6,19.147
24-jul-2004,0,17.6,0,9.1,0,4.0,0,0.0,1018.5,17.805
25-jul-2004,0,16.8,0,12.3,0,10.8,0,0.5,1014.8,17.132
26-jul-2004,0,17.0,0,13.7,0,13.7,0,1.8,1013.5,17.060
27-jul-2004,0,20.7,0,14.7,0,14.6,0,1.0,1014.6,18.358
28-jul-2004,0,21.5,0,13.4,0,12.9,0,0.0,1011.3,19.353
29-jul-2004,0,21.5,0,13.3,0,9.4,0,0.9,1007.8,18.173
30-jul-2004,0,19.9,0,8.9,0,3.2,0,0.0,1013.9,18.778
31-jul-2004,0,21.4,0,11.9,0,9.0,0,0.0,1016.2,20.142
01-aug-2004,0,23.2,0,11.3,0,5.9,0,0.0,1012.9,20.130
02-aug-2004,0,23.6,0,15.3,0,10.7,0,0.0,1005.9,20.320
03-aug-2004,0,22.0,0,15.0,0,11.8,0,0.0,1006.2,20.243
04-aug-2004,0,20.3,0,13.1,0,12.9,0,0.2,1008.9,19.670
05-aug-2004,0,22.1,0,15.6,0,15.3,0,0.6,1006.4,20.263
06-aug-2004,0,21.2,0,12.4,0,8.4,0,1.3,1006.4,20.105
07-aug-2004,0,21.4,0,10.7,0,6.2,0,0.0,1002.7,19.493
08-aug-2004,0,19.8,0,14.4,0,15.0,0,2.3,993.8,18.855
09-aug-2004,0,22.5,0,12.3,0,10.6,0,0.0,999.5,18.905
10-aug-2004,0,21.8,0,11.1,0,5.2,0,0.0,1002.1,19.510
11-aug-2004,0,20.7,0,11.9,0,6.6,0,3.0,1000.3,19.515
12-aug-2004,0,21.0,0,14.4,0,12.4,0,10.3,996.0,19.792
13-aug-2004,0,22.8,0,14.0,0,11.0,0,0.0,1002.8,20.420
14-aug-2004,0,24.2,0,14.5,0,11.7,0,0.0,1009.3,21.420
15-aug-2004,0,23.1,0,12.7,0,8.3,0,16.4,1005.3,20.870
16-aug-2004,0,19.7,0,12.8,0,12.5,0,15.8,997.0,19.650
17-aug-2004,0,21.1,0,12.7,0,8.9,0,0.1,991.3,18.833
18-aug-2004,0,19.3,0,13.9,0,10.7,0,23.1,986.9,18.100
19-aug-2004,0,20.9,0,13.2,0,13.3,0,13.3,990.5,18.323
20-aug-2004,0,18.4,0,8.0,0,11.0,0,0.3,1002.9,17.288
21-aug-2004,0,17.4,0,6.7,0,1.7,0,0.0,1011.9,15.985
22-aug-2004,0,15.4,0,10.5,0,9.0,0,7.9,1007.0,15.605
23-aug-2004,0,21.6,0,13.3,0,13.1,0,11.2,999.4,16.853
24-aug-2004,0,18.6,0,11.1,0,10.4,0,0.6,999.2,17.560
25-aug-2004,0,19.5,0,10.3,0,6.0,0,1.2,1006.7,16.642
26-aug-2004,0,18.4,0,12.0,0,8.5,0,0.4,1007.2,16.853
27-aug-2004,0,19.3,0,9.8,0,13.0,0,0.9,1003.8,17.608
28-aug-2004,0,17.6,0,9.8,0,6.4,0,0.5,1004.9,16.733
29-aug-2004,0,18.4,0,11.7,0,9.5,0,0.6,1002.8,16.782
30-aug-2004,0,18.5,0,8.6,0,6.1,0,0.0,1011.0,16.067
31-aug-2004,0,19.4,0,6.4,0,1.6,0,0.0,1013.7,15.918
01-sep-2004,0,17.5,0,7.9,0,3.2,0,0.0,1008.7,15.548
02-sep-2004,0,17.8,0,10.0,0,7.4,0,0.2,1008.0,16.083
03-sep-2004,0,21.6,0,10.5,0,5.1,0,0.0,1012.3,16.085
04-sep-2004,0,25.1,0,15.9,0,15.3,0,0.0,1018.8,19.198
05-sep-2004,0,22.6,0,14.3,0,10.9,0,0.0,1023.1,19.395
06-sep-2004,0,19.4,0,14.9,0,14.1,0,0.0,1026.8,18.667
07-sep-2004,0,17.9,0,11.1,0,12.9,0,0.0,1029.4,18.555
08-sep-2004,0,20.7,0,9.4,0,4.1,0,0.0, , 
09-sep-2004,4, ,4, ,0,3.0,8, , , 
17-sep-2004,0,17.4,0,9.3,4, ,0,0.1,1000.6,14.042
18-sep-2004,0,16.3,0,8.8,0,8.3,0,10.2,999.6,14.708
19-sep-2004,0,15.4,0,8.3,0,4.1,0,2.4,1001.6,13.255
20-sep-2004,0,15.3,0,9.6,0,9.9,0,0.6,999.7,13.873
21-sep-2004,0,15.5,0,8.2,0,5.0,0,0.0,1010.8,12.708
22-sep-2004,0,17.5,0,11.8,0,7.1,0,1.9,1011.0,14.392
23-sep-2004,0,16.1,0,7.0,0,13.0,0,2.7,1012.2,15.405
24-sep-2004,0,14.1,0,5.2,0,-0.0,0,0.0,1019.2,12.892
25-sep-2004,0,18.8,0,11.6,0,7.9,0,1.0,1017.1,14.222
26-sep-2004,0,18.8,0,12.1,0,10.9,0,0.4,1015.5,15.185
27-sep-2004,0,17.6,0,13.9,0,14.1,0,0.6,1015.2,15.710
28-sep-2004,0,16.4,0,11.9,0,12.0,0,0.8,1012.2,15.425
29-sep-2004,0,17.8,0,11.4,0,10.9,0,13.2,1008.3,15.150
30-sep-2004,0,16.8,0,8.8,0,12.5,0,6.5,1009.2,15.432
01-oct-2004,0,16.7,0,8.9,0,5.0,0,2.8,1005.5,14.113
02-oct-2004,0,16.3,0,8.5,0,4.9,0,0.2,1002.8,12.985
03-oct-2004,0,16.4,0,8.6,0,3.9,0,4.7,996.1,12.062
04-oct-2004,0,14.2,0,6.3,0,2.9,0,10.5,991.5,12.545
05-oct-2004,0,14.9,0,8.0,0,5.2,0,0.0,995.0,11.967
06-oct-2004,0,13.0,0,6.0,0,2.2,0,2.9,1002.9,11.510
07-oct-2004,0,15.1,0,6.6,0,2.2,0,0.1,1010.3,11.615
08-oct-2004,0,13.8,0,4.0,0,-0.5,0,0.4,1016.1,10.925
09-oct-2004,0,12.3,0,6.2,0,0.3,0,0.0,1016.2,10.225
10-oct-2004,0,13.1,0,10.2,0,8.2,0,0.2,1012.4,10.840
11-oct-2004,0,12.9,0,5.4,0,5.7,0,0.0,1010.8,10.560
12-oct-2004,0,13.3,0,5.4,0,1.2,0,0.0,1004.4,10.655
13-oct-2004,0,14.3,0,4.3,0,1.3,0,3.1,995.1,10.887
14-oct-2004,0,10.2,0,4.1,0,-1.0,0,3.4,991.5,9.835
15-oct-2004,0,12.8,0,4.0,0,1.3,0,0.2,992.7,9.512
16-oct-2004,0,12.1,0,4.3,0,-1.2,0,5.2,996.1,9.410
17-oct-2004,0,12.3,0,4.8,0,0.1,0,0.6,1001.5,9.052
18-oct-2004,0,12.9,0,3.7,0,-2.3,0,0.4,998.9,8.457
19-oct-2004,0,9.5,0,1.7,0,3.2,0,1.9,991.6,8.720
20-oct-2004,0,9.8,0,3.5,0,-2.1,0,25.1,986.0,8.070
21-oct-2004,0,13.0,0,2.6,0,-1.8,0,2.2,987.0,8.085
22-oct-2004,0,11.2,0,7.0,0,1.8,0,11.7,990.4,8.202
23-oct-2004,0,11.0,0,7.0,0,5.8,0,5.9,990.3,9.605
24-oct-2004,0,16.4,0,8.0,0,8.4,0,0.8,982.6,10.622
25-oct-2004,0,11.9,0,3.4,0,3.3,0,0.4,991.9,9.927
26-oct-2004,0,13.2,0,1.6,0,-2.6,0,0.0,999.8,7.927
27-oct-2004,0,12.4,0,9.5,0,0.9,0,26.7,983.5,9.330
28-oct-2004,0,13.7,0,8.0,0,8.8,0,20.6,974.7,10.202
29-oct-2004,0,12.4,0,10.0,0,6.6,0,14.3,985.9,10.550
30-oct-2004,0,12.4,0,6.1,0,8.1,0,0.0,1004.2,10.760
31-oct-2004,0,8.8,0,4.9,0,2.1,0,0.0,1017.2,9.747
01-nov-2004,0,10.4,0,4.4,0,1.0,0,0.0,1018.5,9.347
02-nov-2004,0,12.9,0,6.6,0,3.5,0,0.0,1011.2,9.807
03-nov-2004,0,13.8,0,6.0,0,1.9,0,1.1,1006.3,9.960
04-nov-2004,0,11.4,0,4.8,0,-0.4,0,0.1,1014.8,8.703
05-nov-2004,0,11.1,0,5.6,0,-1.1,0,0.0,1024.1,8.003
06-nov-2004,0,12.5,0,9.7,0,4.5,0,0.9,1024.2,9.547
07-nov-2004,0,11.9,0,8.6,0,7.4,0,0.3,1021.2,10.240
08-nov-2004,0,11.3,0,8.5,0,4.4,0,0.3,1016.0,10.450
09-nov-2004,0,10.4,0,6.8,0,4.7,0,0.4,1013.2,9.905
10-nov-2004,0,10.8,0,5.0,0,-1.5,0,0.0,1017.6,8.040
11-nov-2004,0,11.5,0,7.7,0,0.2,0,0.2,1019.5,8.750
12-nov-2004,0,12.1,0,3.0,0,6.2,0,0.3,1022.8,9.573
13-nov-2004,0,8.7,0,1.3,0,-1.4,0,0.0,1032.3,6.791
14-nov-2004,0,9.1,0,3.6,0,-1.9,0,0.0,1029.9,6.826
15-nov-2004,0,11.6,0,7.1,0,4.7,0,0.0,1022.9,8.092
16-nov-2004,0,12.6,0,9.9,0,5.9,0,0.1,1019.1,9.390
17-nov-2004,0,12.4,0,8.0,0,9.4,0,1.3,1015.0,10.267
18-nov-2004,0,8.1,0,1.0,0,5.5,0,17.3,1008.5,8.445
19-nov-2004,0,4.0,0,-1.2,0,-5.1,0,0.0,1016.6,5.475
20-nov-2004,0,7.5,0,0.5,0,-3.9,0,11.8,1016.1,5.475
21-nov-2004,0,12.6,0,7.5,0,3.5,0,1.6,1009.2,7.880
22-nov-2004,0,12.6,0,10.0,0,6.7,0,0.1,1012.4,8.975
23-nov-2004,0,12.2,0,6.6,0,6.7,0,0.0,1020.3,9.333
24-nov-2004,0,13.3,0,6.9,0,2.6,0,0.1,1019.9,8.715
25-nov-2004,0,13.0,0,8.8,0,2.6,0,0.2,1013.2,8.880
26-nov-2004,0,11.3,0,3.5,0,3.4,0,0.4,1014.0,8.877
27-nov-2004,0,10.4,0,1.8,0,-1.1,0,1.0,1014.3,6.997
28-nov-2004,0,7.4,0,1.5,0,-3.1,0,0.1,1014.9,5.294
29-nov-2004,0,7.2,0,1.6,0,-3.0,0,0.0,1012.5,4.479
30-nov-2004,0,10.7,0,4.8,0,-1.8,0,0.1,1003.8,5.318
01-dec-2004,0,7.3,0,2.7,0,0.2,0,0.0,1005.5,6.259
02-dec-2004,0,3.5,0,-0.6,0,-4.7,0,0.1,1010.8,4.552
03-dec-2004,0,10.0,0,3.2,0,-4.2,0,0.4,1015.8,5.218
04-dec-2004,0,10.8,0,5.3,0,-0.7,0,0.1,1020.4,6.244
05-dec-2004,0,11.6,0,6.2,0,-0.5,0,0.3,1021.8,7.104
06-dec-2004,0,11.9,0,6.1,0,2.0,0,0.9,1018.1,7.753
07-dec-2004,0,9.2,0,0.8,0,-3.0,0,0.0,1022.2,5.931
08-dec-2004,0,11.1,0,4.5,0,-2.7,0,0.6,1020.6,6.419
09-dec-2004,0,11.1,0,2.7,0,-2.1,0,0.0,1015.8,6.302
10-dec-2004,0,10.9,0,5.6,0,5.6,0,0.5,1014.3,7.528
11-dec-2004,0,12.2,0,8.5,0,1.1,0,0.1,1019.0,8.128
12-dec-2004,0,9.4,0,6.2,0,1.6,0,0.0,1020.3,7.657
13-dec-2004,0,9.6,0,6.7,0,1.4,0,0.0,1016.7,7.285
14-dec-2004,0,12.5,0,9.1,0,0.3,0,0.6,1008.8,7.840
15-dec-2004,0,12.5,0,1.8,0,-0.9,0,4.7,1007.1,7.361
16-dec-2004,0,8.8,0,5.7,0,-2.7,0,2.4,996.5,5.952
17-dec-2004,0,6.7,0,2.2,0,1.7,0,4.4,995.5,5.498
18-dec-2004,0,6.3,0,4.1,0,-2.4,0,11.6,1000.2,4.539
19-dec-2004,0,6.7,0,-2.4,0,0.2,0,0.5,1006.4,4.449
20-dec-2004,0,7.4,0,-0.9,0,-6.4,0,0.5,1010.9,3.022
21-dec-2004,0,7.1,0,0.8,0,-4.9,0,3.6,1016.2,2.732
22-dec-2004,0,11.6,0,7.1,0,-3.4,0,5.9,1006.9,5.995
23-dec-2004,0,11.1,0,6.8,0,8.1,0,1.4,1002.2,7.625
24-dec-2004,0,7.2,0,1.0,0,2.0,0,2.5,992.7,6.020
25-dec-2004,0,1.9,0,0.1,0,-4.0,0,2.7,994.2,3.687
26-dec-2004,0,4.9,0,0.5,0,-3.8,0,0.1,1009.2,2.804
27-dec-2004,0,9.8,0,1.5,0,-4.3,0,4.3,1003.8,3.533
28-dec-2004,0,6.1,0,0.4,0,-4.1,0,0.0,1006.5,3.227
29-dec-2004,0,12.3,0,2.7,0,-2.5,0,0.1,1016.1,3.938
30-dec-2004,0,12.7,0,10.0,0,4.4,0,1.5,1014.5,6.915
31-dec-2004,0,10.8,0,5.7,0,3.3,0,0.9,1014.7,7.225
01-jan-2005,0,12.0,0,1.8,0,0.6,0,2.7,1005.4,6.200
02-jan-2005,0,7.6,0,1.6,0,-2.8,0,0.0,1016.8,3.743
03-jan-2005,0,10.6,0,6.5,0,-2.3,0,0.0,1016.8,4.991
04-jan-2005,0,10.8,0,3.9,0,2.1,0,2.8,1009.2,5.976